Regional Weather Roundup
Issued by NWS Wilmington, NC

Home | Current Version | Previous Version | Text Only | Print | Product List | Glossary On
Versions: 1 2 3 4 5 6 7 8 9 10 11 12 13 14 15 16 17 18 19 20 21 22 23 24 25 26 27 28 29 30 31 32 33 34 35 36 37 38 39 40 41 42 43 44 45 46 47 48 49 50
000
ASUS42 KILM 270613
RWRILM
RWRILM
REGIONAL HOURLY WEATHER ROUNDUP
NATIONAL WEATHER SERVICE WILMINGTON NC
200 AM EDT FRI MAY 27 2016

NOTE: "FAIR" INDICATES FEW OR NO CLOUDS BELOW 12,000 FEET WITH NO
SIGNIFICANT WEATHER AND/OR OBSTRUCTIONS TO VISIBILITY.

...............WFO WILMINGTON COUNTY WARNING AREA...............

......COASTAL NC AND SC COUNTIES......

CITY           SKY/WX    TMP DP  RH WIND       PRES   REMARKS
WILMINGTON     MOCLDY    69  64  84 SE3       30.14S
N MYRTLE BEACH PTCLDY    74  64  71 S7        30.13S
MYRTLE BEACH   CLEAR     75  57  53 S9        30.15F

......INLAND NC AND SC COUNTIES.......

CITY           SKY/WX    TMP DP  RH WIND       PRES   REMARKS
LUMBERTON      CLEAR     68  63  84 SE3       30.13F
ELIZABETHTOWN  CLEAR     68  65  91 CALM      30.14S
WHITEVILLE     CLEAR     66  64  93 CALM      30.14S
FLORENCE       CLEAR     69  62  78 S5        30.14S
DARLINGTON     CLEAR     69  61  75 S6        30.14R
KINGSTREE      FAIR      66  59  77 SE3       30.14S
HARTSVILLE     FAIR      66  57  72 SW3       30.13S
BENNETTSVILLE  FAIR      70  63  78 CALM      30.13S
CONWAY         FAIR      61  59  94 CALM      30.14S
GEORGETOWN     FAIR      61  59  94 CALM      30.14F
MARION         FAIR      66  63  88 S6        30.14S

....................REST OF NORTH CAROLINA......................

.........EASTERN NC.........

CITY           SKY/WX    TMP DP  RH WIND       PRES   REMARKS
CAPE HATTERAS  CLEAR     72  63  73 S7        30.14F
JACKSONVILLE   CLEAR     65  63  93 CALM      30.14F
MOREHEAD CITY  CLEAR     70  63  78 S6        30.14F
KENANSVILLE    CLEAR     65  63  92 CALM      30.15F
NEW BERN       CLEAR     64  61  90 CALM      30.15F
ELIZABETH CITY CLEAR     69  63  81 SW8       30.14R

.........CENTRAL NC.........

CITY           SKY/WX    TMP DP  RH WIND       PRES   REMARKS
RALEIGH DURHAM PTCLDY    72  60  66 SW9       30.13R
ROCKY MOUNT    CLEAR     70  63  78 S7        30.14R
ROANOKE RAPIDS NOT AVBL
FAYETTEVILLE   MOCLDY    71  63  75 S8        30.14R
HOFFMAN        CLEAR     68  60  75 S3        30.13R

.........WESTERN NC.........

CITY           SKY/WX    TMP DP  RH WIND       PRES   REMARKS
CHARLOTTE      PTCLDY    72  62  71 S10       30.13R
GREENSBORO     CLEAR     71  62  73 S9        30.12R
HICKORY        NOT AVBL
BOONE          NOT AVBL
ASHEVILLE      NOT AVBL

.....................REST OF SOUTH CAROLINA.....................

.........EASTERN SC.........

CITY           SKY/WX    TMP DP  RH WIND       PRES   REMARKS
CHARLESTON     PTCLDY    67  62  84 N3        30.13S
BEAUFORT MCAS  CLEAR     74  65  73 CALM      30.11F
HILTON HEAD    CLEAR     73  61  64 VRB5      30.11F

.........CENTRAL SC.........

CITY           SKY/WX    TMP DP  RH WIND       PRES   REMARKS
COLUMBIA       CLEAR     72  60  66 S6        30.12F
ORANGEBURG     CLEAR     68  61  78 SE3       30.13F
SUMTER SHAW    CLEAR     69  61  76 S1        30.11S

.........WESTERN SC.........

CITY           SKY/WX    TMP DP  RH WIND       PRES   REMARKS
GREENVILLE     NOT AVBL
ROCK HILL      PTCLDY    70  63  78 S8        30.13S
ANDERSON       CLOUDY    71  65  81 CALM      30.11S
CLEMSON        NOT AVBL
GREENWOOD      PTCLDY    71  60  68 S8        30.13S


...................COASTAL AND OFFSHORE REPORTS..................

................LOCAL PIERS AND NC RESERVE................


STATION/POSITION TIME  SKY/WX   TEMP    WIND        PRES    VSBY
                                AIR SEA DIR/SP/G
                 (UTC)          (F)     (DEG/KT/KT) (MB)    (MI)
JOHNY MRCER PIER 0500            74 74  160/ 10/ 11 1019.6F
NC RESRV MASNBRO NOT AVBL
OCEAN CREST PIER NOT AVBL
SPRINGMAID  PIER 0500            75 74  140/ 11/ 13 1020.2F


................COASTAL AND OFFSHORE BUOYS................


STATION/POSITION TIME  SKY/WX   TEMP    WIND        PRES    VSBY
                                AIR SEA DIR/SP/G
                 (UTC)          (F)     (DEG/KT/KT) (MB)    (MI)
DIMNDSHOAL 41025 0550            76 71  180/ 14/ 16 1020.7F
WVE H/P(F/S)=  2/ 8 SWL H/P/D(F/S/D)=  2/130/ 8

CAPE LOOKOUT     0600            74     170/  9/  9 1020.5F
ONSLOW BAY 41036 NOT AVBL
ONSLOW BAY 41064 0508            76 74  170/  8/ 12 1021.2F
ONSLOW BAY 41159 0525               74                N/A
WVE H/P(F/S)=  2/ 8

5SE WRITBC 41038 0508            75 73  170/ 10/ 12 1021.1F
MASNBO INL 41110 0506               73                N/A
WVE H/P(F/S)=  2/ 8

WILM HARBR 41108 0526               75                N/A
WVE H/P(F/S)=  2/ 8

27SE WRITB 41037 0508            76 74  180/ 10/ 14 1020.1F
FRYING PAN 41013 0500            77 76  140/ 10/ 12 1020.6F
SUNST NRSH 41024 0508            75 75  180/  8/ 12 1019.8F
CAPRS NRSH 41029 0508            77 77  160/ 12/ 16 1020.1F
EDISTO     41004 0550            77 77  130/ 12/ 14 1019.4F
WVE H/P(F/S)=  2/ 8 SWL H/P/D(F/S/D)=  2/ 8



..........OFFSHORE BUOYS BEYOND 100 NM OFFSHORE...........
.....IN A TRIANGLE---HAT TO BERMUDA TO BAHAMAS TO HAT.....


STATION/POSITION TIME  SKY/WX   TEMP    WIND        PRES    VSBY
                                AIR SEA DIR/SP/G
                 (UTC)          (F)     (DEG/KT/KT) (MB)    (MI)
150E HAT   41001 NOT AVBL
W BERMUDA  41048 0550            75 76  100/ 14/ 16 1020.0S
WVE H/P(F/S)=  5/ 8 SWL H/P/D(F/S/D)=  3/150/ 8

ATLANTIC S 41049 0550            78 78  110/ 16/ 19 1019.2F
WVE H/P(F/S)=  5/ 8 SWL H/P/D(F/S/D)=  3/120/ 8

E BAHAMAS  41046 0500            80 81  130/ 16/ 19 1015.5F
NE BAHAMAS 41047 0500            77 79   90/ 21/ 25 1012.0F
120E CANVRL41010 0520            76 78   80/ 10/ 12 1018.0F

END



USA.gov is the U.S. government's official web portal to all federal, state and local government web resources and services.